FW5467 Weather Reports


time (UTC)temp
C
wind
direction
speed
KPH
gust
KPH
rain 1hr
cm
rain 24hr
cm
rain mn
cm
humidity
%
barometer
mb
20260504204656 22 241 4.8 11.3 0.00 0.00 0.00 37 1010.2
20260504204124 22 235 6.4 25.7 0.00 0.00 0.00 37 1010.2
20260504203553 22 290 3.2 25.7 0.00 0.00 0.00 35 1010.2
20260504203052 22 140 0.0 6.4 0.00 0.00 0.00 36 1010.2
20260504202552 22 178 0.0 1.6 0.00 0.00 0.00 36 1010.2
20260504202052 22 197 3.2 12.9 0.00 0.00 0.00 37 1010.1
20260504201750 22 281 6.4 16.1 0.00 0.00 0.00 35 1010.2
20260504201249 22 257 6.4 17.7 0.00 0.00 0.00 36 1010.3
20260504200519 22 242 8.0 17.7 0.00 0.00 0.00 37 1010.4
20260504200019 22 240 8.0 14.5 0.00 0.00 0.00 35 1010.5
20260504195446 22 250 4.8 11.3 0.00 0.00 0.00 37 1010.5
20260504194947 22 232 6.4 14.5 0.00 0.00 0.00 38 1010.5
20260504194447 22 252 6.4 14.5 0.00 0.00 0.00 39 1010.5
20260504193914 21 230 1.6 11.3 0.00 0.00 0.00 38 1010.7
20260504193342 21 213 3.2 16.1 0.00 0.00 0.00 38 1010.7
20260504192810 22 267 4.8 16.1 0.00 0.00 0.00 36 1010.8
20260504192310 22 257 3.2 14.5 0.00 0.00 0.00 39 1010.8
20260504191810 22 222 3.2 14.5 0.00 0.00 0.00 37 1010.7
20260504191311 21 211 3.2 16.1 0.00 0.00 0.00 37 1010.8
20260504190738 22 188 3.2 14.5 0.00 0.00 0.00 38 1010.9
20260504190238 22 162 3.2 9.7 0.00 0.00 0.00 37 1010.8
20260504185738 22 261 3.2 8.0 0.00 0.00 0.00 37 1010.9
20260504185238 22 230 1.6 8.0 0.00 0.00 0.00 37 1011.1
20260504184738 22 204 1.6 4.8 0.00 0.00 0.00 37 1011.1
20260504184238 22 173 3.2 20.9 0.00 0.00 0.00 38 1011.1
20260504184008 22 249 4.8 20.9 0.00 0.00 0.00 38 1011.1
20260504183237 21 225 4.8 11.3 0.00 0.00 0.00 36 1011.2
20260504182936 21 236 3.2 11.3 0.00 0.00 0.00 38 1011.1
20260504182133 21 190 1.6 4.8 0.00 0.00 0.00 40 1011.3
20260504181633 20 232 3.2 9.7 0.00 0.00 0.00 39 1011.2
20260504181601 21 160 1.6 9.7 0.00 0.00 0.00 38 1011.2
20260504180600 20 219 1.6 8.0 0.00 0.00 0.00 39 1011.1
20260504180100 20 232 1.6 17.7 0.00 0.00 0.00 39 1011.2
20260504175601 20 207 1.6 12.9 0.00 0.00 0.00 40 1011.3
20260504175102 20 212 3.2 12.9 0.00 0.00 0.00 38 1011.3
20260504174600 20 245 1.6 8.0 0.00 0.00 0.00 40 1011.4
20260504174027 21 222 1.6 11.3 0.00 0.00 0.00 38 1011.6
20260504173957 20 193 3.2 11.3 0.00 0.00 0.00 39 1011.5
20260504172924 20 192 1.6 9.7 0.00 0.00 0.00 38 1011.6
20260504171820 21 251 3.2 17.7 0.00 0.00 0.00 39 1011.8
20260504171248 21 297 6.4 16.1 0.00 0.00 0.00 41 1011.9
20260504170948 21 227 9.7 27.4 0.00 0.00 0.00 42 1012.3
20260504170144 21 263 6.4 19.3 0.00 0.00 0.00 39 1012.3
20260504150842 17 222 1.6 11.3 0.00 0.00 0.00 44 1012.7
20260504150342 17 239 0.0 11.3 0.00 0.00 0.00 44 1013.0
20260504141240 16 242 3.2 14.5 0.00 0.00 0.00 43 1013.2
20260504140740 16 226 3.2 9.7 0.00 0.00 0.00 45 1013.2
20260504140208 16 227 3.2 14.5 0.00 0.00 0.00 46 1013.3
20260504140138 16 238 1.6 11.3 0.00 0.00 0.00 44 1013.4
20260504130720 15 232 0.0 3.2 0.00 0.00 0.00 47 1013.9
20260504130148 15 213 1.6 11.3 0.00 0.00 0.00 47 1014.0
20260504120126 11 245 0.0 0.0 0.00 0.00 0.00 57 1013.7
20260504110546 4 175 0.0 0.0 0.00 0.00 0.00 80 1012.5
20260504100421 2 176 0.0 0.0 0.00 0.00 0.00 81 1012.1
20260504081601 1 178 0.0 0.0 0.00 0.00 0.00 84 1011.5
20260504081030 1 179 0.0 0.0 0.00 0.00 0.00 84 1011.6
20260504080457 1 179 0.0 0.0 0.00 0.00 0.00 84 1011.6
20260504070406 1 178 0.0 0.0 0.00 0.00 0.00 86 1011.5
20260504050338 2 266 0.0 0.0 0.00 0.00 0.00 79 1011.6
20260504045837 2 266 0.0 0.0 0.00 0.00 0.00 80 1011.5
20260504045337 2 266 0.0 0.0 0.00 0.00 0.00 79 1011.4
20260504044805 2 266 0.0 0.0 0.00 0.00 0.00 80 1011.4
20260504044233 2 266 0.0 0.0 0.00 0.00 0.00 80 1011.4
20260504043702 2 266 0.0 0.0 0.00 0.00 0.00 81 1011.4
20260504043203 2 266 0.0 0.0 0.00 0.00 0.00 80 1011.5
20260504042937 2 266 0.0 0.0 0.00 0.00 0.00 80 1011.4
20260504042702 2 266 0.0 0.0 0.00 0.00 0.00 81 1011.5
20260504041702 2 266 0.0 0.0 0.00 0.00 0.00 80 1011.5
20260504041130 2 266 0.0 0.0 0.00 0.00 0.00 80 1011.5
20260504040557 2 266 0.0 0.0 0.00 0.00 0.00 79 1011.5
20260504040025 2 266 0.0 0.0 0.00 0.00 0.00 78 1011.5
20260504035419 2 266 0.0 0.0 0.00 0.00 0.00 78 1011.4
20260504035150 3 266 0.0 0.0 0.00 0.00 0.00 78 1011.4
20260504034348 3 266 0.0 0.0 0.00 0.00 0.00 78 1011.4
20260504034048 3 266 0.0 0.0 0.00 0.00 0.00 77 1011.6
20260504033245 3 266 0.0 0.0 0.00 0.00 0.00 77 1011.7
20260504032713 3 266 0.0 0.0 0.00 0.00 0.00 76 1011.7
20260504032142 3 266 0.0 0.0 0.00 0.00 0.00 75 1011.7
20260504031611 4 266 0.0 0.0 0.00 0.00 0.00 75 1011.7
20260504031039 4 266 0.0 0.0 0.00 0.00 0.00 75 1011.7
20260504030506 5 266 0.0 0.0 0.00 0.00 0.00 75 1011.6
20260504025936 5 266 0.0 0.0 0.00 0.00 0.00 75 1011.7
20260504025404 5 266 0.0 0.0 0.00 0.00 0.00 76 1011.8
20260504025029 5 266 0.0 0.0 0.00 0.00 0.00 75 1011.6
20260504024227 5 266 0.0 0.0 0.00 0.00 0.00 74 1011.6
20260504023727 4 266 0.0 0.0 0.00 0.00 0.00 72 1011.6
20260504023155 4 266 0.0 0.0 0.00 0.00 0.00 72 1011.7
20260504022623 5 266 0.0 0.0 0.00 0.00 0.00 72 1011.6
20260504022050 5 266 0.0 0.0 0.00 0.00 0.00 69 1011.6
20260504021517 5 266 0.0 0.0 0.00 0.00 0.00 69 1011.6
20260504020913 5 266 0.0 0.0 0.00 0.00 0.00 68 1011.6
20260504020413 5 266 0.0 0.0 0.00 0.00 0.00 68 1011.8
20260504020112 5 266 0.0 0.0 0.00 0.00 0.00 68 1011.7
20260504015813 5 266 0.0 0.0 0.00 0.00 0.00 68 1011.7
20260504014812 5 266 0.0 0.0 0.00 0.00 0.00 67 1011.7
20260504014240 5 266 0.0 0.0 0.00 0.00 0.00 67 1011.6
20260504013740 5 266 0.0 0.0 0.00 0.00 0.00 67 1011.6
20260504013209 5 266 0.0 0.0 0.00 0.00 0.00 66 1011.5
20260504012637 5 266 0.0 0.0 0.00 0.00 0.00 66 1011.5
20260504012106 5 266 0.0 0.0 0.00 0.00 0.00 66 1011.6
20260504011534 5 266 0.0 0.0 0.00 0.00 0.00 65 1011.7
20260504011000 6 266 0.0 0.0 0.00 0.00 0.00 64 1011.6
20260504010700 6 266 0.0 0.0 0.00 0.00 0.00 64 1011.5
20260504010128 6 266 0.0 0.0 0.00 0.00 0.00 64 1011.5
20260504005325 6 266 0.0 0.0 0.00 0.00 0.00 62 1011.4
20260504004754 6 266 0.0 0.0 0.00 0.00 0.00 61 1011.5
20260504004223 7 266 0.0 0.0 0.00 0.00 0.00 59 1011.6
20260504003651 7 266 0.0 0.0 0.00 0.00 0.00 58 1011.5
20260504003119 7 266 0.0 0.0 0.00 0.00 0.00 57 1011.6
20260504002546 7 266 0.0 0.0 0.00 0.00 0.00 56 1011.5
20260504002013 8 266 0.0 0.0 0.00 0.00 0.00 56 1011.5
20260504001441 8 266 0.0 0.0 0.00 0.00 0.00 55 1011.5
20260504000910 8 266 0.0 0.0 0.00 0.00 0.00 56 1011.5
20260504000610 9 266 0.0 0.0 0.00 0.00 0.00 53 1011.5
20260503235839 9 266 0.0 0.0 0.00 0.00 0.00 51 1011.5
20260503235309 9 266 0.0 0.0 0.00 0.00 0.00 51 1011.6
20260503234739 10 266 0.0 0.0 0.00 0.00 0.00 52 1011.5
20260503234239 10 266 0.0 0.0 0.00 0.00 0.00 50 1011.5
20260503233739 10 266 0.0 0.0 0.00 0.00 0.00 49 1011.5
20260503233239 10 257 0.0 11.3 0.00 0.00 0.00 49 1011.6
20260503232739 10 257 0.0 11.3 0.00 0.00 0.00 48 1011.5
20260503232207 10 278 0.0 1.6 0.00 0.00 0.00 47 1011.6
20260503231637 11 245 1.6 11.3 0.00 0.00 0.00 47 1011.6
20260503231105 11 274 1.6 8.0 0.00 0.00 0.00 46 1011.6
20260503230531 11 263 1.6 9.7 0.00 0.00 0.00 45 1011.6
20260503225958 11 242 1.6 9.7 0.00 0.00 0.00 45 1011.6
20260503225458 11 282 4.8 20.9 0.00 0.00 0.00 45 1011.6
20260503224926 11 231 4.8 20.9 0.00 0.00 0.00 44 1011.6
20260503224354 11 224 1.6 14.5 0.00 0.00 0.00 44 1011.6
20260503223822 11 258 1.6 14.5 0.00 0.00 0.00 43 1011.6
20260503223521 11 249 1.6 14.5 0.00 0.00 0.00 42 1011.6
20260503222953 11 277 1.6 14.5 0.00 0.00 0.00 42 1011.4
20260503222149 12 247 1.6 14.5 0.00 0.00 0.00 41 1011.4
20260503221848 12 265 4.8 19.3 0.00 0.00 0.00 40 1011.4
20260503221045 12 263 4.8 19.3 0.00 0.00 0.00 41 1011.4
20260503220546 12 265 3.2 20.9 0.00 0.00 0.00 41 1011.4
20260503220012 12 246 1.6 20.9 0.00 0.00 0.00 39 1011.4
20260503215712 12 226 1.6 8.0 0.00 0.00 0.00 39 1011.3
20260503215140 12 272 4.8 22.5 0.00 0.00 0.00 39 1011.4
20260503214641 12 233 4.8 22.5 0.00 0.00 0.00 39 1011.4
20260503213839 12 260 3.2 14.5 0.00 0.00 0.00 39 1011.4
20260503213308 12 251 1.6 8.0 0.00 0.00 0.00 41 1011.3
20260503213039 12 125 1.6 14.5 0.00 0.00 0.00 41 1011.3
20260503212307 12 244 3.2 14.5 0.00 0.00 0.00 38 1011.2
20260503211807 12 217 3.2 17.7 0.00 0.00 0.00 38 1011.2
20260503211306 12 142 1.6 17.7 0.00 0.00 0.00 39 1011.2
20260503210807 12 182 1.6 12.9 0.00 0.00 0.00 39 1011.2
20260503210538 13 158 4.8 20.9 0.00 0.00 0.00 38 1011.2
20260503205735 13 236 4.8 20.9 0.00 0.00 0.00 36 1011.1
20260503205236 13 251 3.2 16.1 0.00 0.00 0.00 35 1011.2